Temperature
26 24 24 23 22 21 20 20 20 20 19 19 19 19 19 19 19 19 19 19 19 18 19 19 19 18 18 18 18 18 18 18 19 19 19 19 19 19 19 19 18 18 18
26 25 24 23 22 21 21 20 20 20 19 19 19 19 19 19 19 19 19 18 18 18 18 19 18 18 18 18 18 18 18 18 18 18 18 18 19 19 19 19 19 18 18
26 25 24 23 22 21 21 20 20 20 19 19 19 19 19 19 19 19 18 18 18 18 18 18 18 18 18 18 18 18 18 18 18 18 18 18 18 18 19 19 18 18 18
27 25 24 24 23 22 21 20 20 20 19 19 19 19 19 19 19 18 18 18 18 18 18 18 18 18 18 18 18 18 18 18 18 18 18 18 18 18 18 18 18 18 18
27 26 25 24 23 22 21 20 20 20 20 19 19 19 19 19 19 18 18 18 18 18 18 18 18 18 18 18 17 17 17 17 17 18 18 18 18 18 18 18 18 18 18
27 26 25 24 23 23 21 21 20 20 20 19 19 19 19 19 19 18 18 18 18 18 18 18 18 18 18 17 17 17 17 17 17 17 17 17 18 18 18 18 18 18 18
27 26 25 24 23 22 22 21 20 20 20 19 19 19 19 19 18 18 18 18 18 18 18 18 18 18 17 17 17 17 17 17 17 17 17 17 17 17 17 17 17 18 18
27 26 25 24 23 22 22 21 20 20 19 19 19 19 19 18 18 18 18 18 18 18 18 18 18 17 17 17 17 17 17 17 17 17 17 17 17 17 17 17 17 17 17
27 26 25 24 23 22 21 21 20 20 19 19 19 19 19 18 18 18 18 18 18 17 17 17 17 17 17 17 17 16 16 16 17 17 17 17 17 17 17 17 17 17 17
27 26 25 24 23 23 22 21 20 20 19 19 19 19 19 18 18 18 18 18 18 18 17 17 17 17 17 17 16 16 16 16 16 16 16 16 16 16 16 16 16 16 16
27 26 25 24 23 23 22 21 20 20 19 19 19 19 18 18 18 18 18 18 17 17 17 17 17 17 17 16 16 16 16 16 16 16 16 16 16 16 16 16 16 16 16
26 25 24 24 23 23 22 21 21 20 20 19 19 19 18 18 18 17 17 17 17 17 17 17 17 16 16 16 16 16 16 15 15 15 15 15 15 15 15 15 15 15 16
26 25 24 23 22 22 21 21 21 20 20 19 19 18 18 18 17 17 17 17 17 17 17 16 16 16 16 16 16 16 15 15 15 15 15 15 15 15 15 15 15 15 15
25 24 23 22 22 21 21 21 20 20 20 19 19 18 18 18 17 17 17 17 16 16 16 16 16 16 16 16 16 15 15 15 15 15 15 15 14 14 14 14 14 14 14
24 24 23 22 21 21 20 20 20 20 19 19 19 18 18 18 17 17 17 17 16 16 16 16 15 15 15 15 15 15 15 15 14 14 14 14 14 14 14 14 14 14 14
24 23 22 21 21 20 20 20 19 19 19 19 18 18 18 17 17 17 17 16 16 16 16 15 15 15 15 15 15 15 15 14 14 14 14 14 14 14 14 14 14 14 14
23 23 22 21 20 20 20 19 19 19 19 18 18 18 17 17 17 16 16 16 16 16 15 15 15 15 15 15 15 15 14 14 14 14 14 14 14 14 14 14 14 14 13
23 22 21 21 20 20 19 19 19 18 18 18 17 17 17 16 16 16 16 16 16 15 15 15 15 15 15 14 14 14 14 14 14 14 14 13 13 13 13 13 13 13 13
22 21 21 20 20 19 19 18 18 18 18 17 17 16 16 16 16 16 16 16 15 15 15 15 15 14 14 14 14 14 14 14 14 14 13 13 13 13 13 13 13 13 13
22 21 20 20 19 19 18 18 17 17 17 17 16 16 16 15 15 15 15 15 15 15 15 15 15 14 14 14 14 14 14 13 13 13 13 13 13 13 13 13 13 13 13
21 20 19 19 19 18 18 17 17 17 16 16 16 16 15 15 15 15 15 15 15 15 14 14 14 14 14 14 14 14 13 13 13 13 13 13 13 13 13 13 12 12 12
20 19 18 18 18 17 17 17 16 16 16 15 15 15 15 15 15 15 15 15 14 14 14 14 14 14 14 14 14 13 13 13 13 12 12 12 12 13 13 12 13 12 12
19 18 18 17 17 17 16 16 16 16 15 15 15 15 14 14 14 14 14 14 14 14 14 14 14 14 14 13 13 13 13 13 12 12 12 12 12 12 12 12 12 12 12
18 18 17 17 16 16 16 16 15 15 15 15 15 14 14 14 14 14 14 14 14 14 14 13 13 13 13 13 13 13 13 12 12 12 12 12 12 12 12 12 12 12 12
17 17 16 16 16 16 16 15 15 15 14 14 14 14 14 14 14 14 14 14 14 14 14 13 13 13 13 13 12 12 12 12 12 12 12 12 12 12 12 11 11 11 11
16 16 16 16 15 15 15 15 14 14 14 14 14 14 14 14 14 14 14 14 14 14 14 13 13 13 13 12 12 12 12 12 12 12 11 11 11 11 11 11 11 11 11
Wind_Speed
8 8 8 8 8 7 6 5 4 3 1 1 1 0 0 1 1 2 2 2 2 3 2 3 3 3 2 2 2 2 3 3 2 1 1 1 2 2 2 2 3 4 5
9 8 7 8 8 8 7 6 4 3 2 1 1 1 0 0 2 2 2 1 2 2 3 3 3 3 2 3 3 2 3 3 2 1 1 1 1 1 3 4 3 4 4
8 9 8 7 8 8 7 6 5 4 2 1 1 0 1 1 1 2 1 1 2 2 2 2 2 2 2 2 2 2 2 3 3 1 1 1 1 1 1 2 2 2 2
7 8 8 7 7 8 8 7 6 4 3 2 1 1 1 1 1 1 1 1 2 1 1 2 2 2 2 2 2 2 2 3 3 2 2 1 1 0 1 1 1 2 2
7 8 8 7 7 8 8 8 6 5 3 2 1 1 1 1 1 1 1 0 1 1 1 1 1 2 2 2 3 3 3 2 3 3 3 3 2 2 1 2 2 1 1
6 6 7 7 7 8 8 9 8 6 4 3 2 2 0 1 1 1 1 0 1 1 2 2 2 2 2 3 3 2 3 3 3 3 3 2 2 2 1 2 3 2 2
5 6 6 7 6 7 8 8 8 7 5 4 2 2 1 0 0 1 1 1 1 1 2 2 2 2 2 2 3 2 3 3 3 3 3 3 2 2 2 2 3 2 2
7 7 7 7 6 6 7 7 8 7 6 5 3 2 1 1 1 1 2 1 1 1 1 1 1 2 2 3 3 2 2 2 3 3 3 3 3 2 2 2 2 3 3
6 7 7 7 7 6 7 7 6 6 6 5 4 3 2 1 1 1 1 2 2 1 2 1 1 1 1 2 2 2 2 2 3 3 3 3 3 3 3 2 2 2 3
6 7 6 6 6 6 6 6 7 6 6 5 5 4 3 2 2 1 0 1 2 2 1 1 1 1 1 2 3 2 2 3 3 3 3 3 4 3 3 3 3 2 3
6 6 7 6 5 6 7 6 6 6 5 5 5 3 3 3 2 1 0 0 1 1 1 2 2 1 2 2 2 3 2 2 3 3 3 3 4 4 4 4 3 3 3
6 6 6 6 4 4 4 5 4 6 6 5 4 3 2 2 2 1 1 0 0 1 1 1 2 2 2 2 3 4 4 3 3 3 3 4 4 4 4 4 4 4 4
6 6 6 5 5 4 4 2 2 3 4 4 4 3 2 1 1 1 0 0 0 0 1 1 1 2 2 3 3 3 3 3 3 3 2 3 4 4 4 5 5 5 5
6 5 6 5 5 4 3 3 2 2 3 3 3 3 2 2 2 1 1 0 0 0 1 1 1 2 2 3 4 4 4 3 4 3 2 2 2 3 4 4 4 5 5
5 5 5 5 5 4 3 3 2 3 3 3 2 2 1 1 1 0 0 0 1 1 0 1 1 2 1 3 4 5 4 4 4 4 3 3 2 3 3 4 4 5 4
5 5 5 4 4 4 3 3 2 2 3 2 2 2 1 1 1 0 0 0 0 1 1 1 1 2 3 4 5 5 5 4 4 4 4 5 2 4 5 6 6 5 5
4 4 4 3 3 3 3 3 3 3 3 3 3 2 1 1 1 1 0 0 1 1 1 1 1 1 2 4 5 6 5 5 5 4 4 5 5 4 4 6 7 7 8
4 3 2 3 4 4 4 3 4 4 4 3 3 3 3 3 2 2 2 1 1 2 2 2 2 1 2 3 5 6 5 5 4 4 4 4 4 6 5 6 6 6 6
4 3 3 3 3 3 4 4 3 3 3 3 3 2 2 2 3 3 2 2 2 2 2 2 2 2 2 3 4 5 5 4 4 4 3 4 4 6 6 5 6 7 6
4 4 4 4 3 3 4 3 2 2 2 2 2 2 1 1 1 1 2 2 2 3 3 2 2 2 2 2 3 4 4 5 5 3 3 3 3 5 5 5 6 7 7
4 5 4 3 3 3 3 2 2 2 2 1 1 1 1 1 1 1 2 2 3 3 3 3 2 2 1 2 2 2 3 5 5 4 3 3 3 5 6 6 6 8 8
4 4 4 4 3 2 2 2 2 2 1 1 1 1 1 2 1 1 2 3 3 4 3 3 3 2 1 1 1 2 3 5 4 5 4 4 6 7 7 7 9 10 8
3 3 3 3 3 3 2 1 1 1 1 1 1 1 2 1 1 2 3 3 3 3 3 3 3 2 1 1 1 2 4 5 4 4 6 7 9 8 7 8 9 7 4
2 2 2 2 2 2 2 2 1 1 1 1 2 2 2 2 2 2 2 2 3 3 3 3 4 4 3 3 3 3 4 5 5 5 7 9 9 8 7 6 5 4 3
2 2 1 1 1 1 1 2 2 1 2 2 3 3 3 2 1 1 2 1 1 1 1 2 2 3 3 3 4 3 4 4 5 5 5 5 4 4 3 3 3 3 2
1 1 1 1 1 1 1 1 1 1 2 3 4 3 3 2 2 1 1 2 1 2 3 3 2 1 2 4 5 6 7 8 7 4 4 5 4 4 4 4 4 3 3
Wind_Direction
152 149 150 144 139 137 133 130 124 113 111 88 105 184 76 100 106 106 91 67 18 10 17 9 0 1 30 20 360 354 331 322 310 312 314 267 178 170 200 190 182 191 185
146 145 153 154 150 147 144 139 144 141 144 138 193 183 74 328 110 77 89 61 42 5 16 25 354 10 20 13 0 353 335 323 332 317 326 331 310 252 210 190 192 197 187
157 157 159 162 158 152 152 152 145 147 151 168 196 216 131 44 73 110 101 99 74 53 6 8 4 355 19 13 333 357 332 324 321 345 344 327 343 305 246 199 182 182 182
152 157 159 162 164 157 155 143 142 145 155 163 223 198 134 99 73 103 103 99 80 65 35 20 359 343 358 4 336 5 326 318 323 323 305 301 313 279 289 284 199 212 204
149 153 158 159 163 159 155 148 143 147 150 165 185 202 59 60 68 64 57 95 95 65 44 61 360 351 3 358 355 358 338 335 341 334 325 335 332 303 274 300 306 280 230
139 144 149 150 160 156 155 152 145 151 161 175 176 162 150 11 46 44 3 301 97 47 30 44 24 16 2 2 354 337 345 351 348 340 336 341 340 330 322 305 301 294 272
131 133 132 135 145 149 151 147 147 156 165 167 167 168 188 192 349 304 264 282 73 62 34 36 27 16 7 356 341 343 345 349 333 330 331 328 319 320 315 309 309 312 295
124 129 130 133 135 141 143 142 147 157 160 158 159 155 168 235 268 297 307 348 21 76 64 60 30 15 2 354 343 348 344 343 325 324 330 320 318 317 314 305 313 315 303
120 126 127 128 136 141 144 148 151 157 161 164 163 162 179 231 303 318 318 352 354 26 62 71 46 352 359 347 337 343 347 335 324 320 328 326 316 322 323 308 285 280 302
122 123 124 127 133 136 135 145 158 160 165 167 179 179 184 202 229 258 196 7 1 8 16 20 1 346 2 3 336 329 335 334 331 319 332 326 323 327 322 317 307 288 283
110 117 119 116 121 129 141 154 157 159 169 177 176 183 177 194 199 214 242 138 347 353 5 351 334 336 343 342 329 324 330 328 325 325 338 329 314 328 324 321 319 310 300
103 104 111 109 110 108 124 144 159 174 172 172 169 179 173 177 185 196 243 140 36 337 358 341 331 324 348 341 327 320 326 321 320 319 329 327 321 328 321 319 311 304 294
97 98 99 96 87 79 76 117 166 159 167 165 157 152 159 169 213 235 232 174 216 314 342 320 329 334 339 328 320 313 306 306 309 315 320 322 323 326 321 314 312 306 304
102 98 102 100 93 85 78 68 71 110 122 139 150 145 162 180 208 227 231 212 254 248 288 313 331 328 344 340 331 319 306 304 303 302 300 299 307 309 308 305 309 307 307
96 90 93 95 92 88 82 71 59 77 96 110 114 117 146 168 184 162 177 114 284 275 298 318 312 309 314 335 334 315 307 309 305 307 306 293 283 306 303 305 311 305 301
102 102 94 99 103 99 88 85 74 80 96 100 94 89 82 82 70 82 63 86 283 307 311 262 273 308 322 345 348 329 314 306 299 299 300 287 282 293 288 297 297 291 287
90 86 100 107 112 112 100 97 111 102 87 80 77 73 73 68 55 351 42 317 286 292 290 287 276 293 331 327 330 322 302 295 298 303 304 302 314 319 307 288 279 281 280
101 89 102 109 116 112 101 95 92 89 85 79 69 51 36 36 38 29 26 5 321 300 282 273 281 296 318 324 321 313 287 289 293 299 298 303 310 317 319 303 295 285 281
102 98 106 106 102 108 108 102 95 90 87 80 70 53 36 28 29 21 359 337 310 300 290 275 269 277 305 317 319 315 292 295 297 293 303 308 304 310 313 302 299 297 290
86 88 90 91 90 92 101 102 96 88 69 62 46 29 17 17 13 354 319 317 305 289 288 289 283 276 277 267 298 305 299 301 301 297 290 306 315 317 322 304 298 298 300
73 78 81 80 72 72 90 104 96 85 74 53 5 18 352 314 321 314 305 306 303 297 288 272 266 252 251 249 258 288 306 309 309 308 305 309 317 316 313 301 291 288 293
72 68 71 72 69 69 76 84 65 50 49 12 0 357 294 289 309 312 300 295 288 281 276 272 269 259 249 250 242 241 265 291 304 306 308 314 315 301 291 286 285 291 295
71 71 78 80 65 57 55 68 55 34 14 345 313 298 300 319 302 271 274 276 280 293 305 311 313 320 4 33 348 274 277 287 287 305 315 309 297 289 282 273 277 286 292
73 82 79 79 61 49 29 35 42 21 351 302 283 272 261 261 277 289 301 328 339 337 338 339 336 338 0 17 3 332 309 305 304 310 307 293 287 284 286 291 283 269 275
62 72 86 72 34 32 22 31 19 2 332 297 277 266 259 258 277 313 331 5 5 336 304 339 335 340 347 344 327 316 315 315 315 315 299 296 301 302 297 296 297 300 300
83 65 60 50 23 13 1 17 7 343 302 282 270 259 255 245 235 210 302 340 267 202 186 203 233 283 285 301 306 302 298 297 300 305 295 298 307 312 314 312 309 309 311
Height
1505 1507 1508 1509 1509 1510 1511 1511 1512 1512 1513 1513 1514 1515 1515 1515 1515 1516 1516 1515 1515 1515 1515 1514 1514 1513 1513 1512 1511 1511 1511 1510 1510 1509 1508 1508 1508 1507 1507 1508 1508 1509 1509
1503 1505 1507 1509 1509 1509 1510 1511 1511 1512 1513 1513 1514 1515 1515 1516 1516 1516 1515 1515 1515 1515 1515 1514 1513 1513 1512 1512 1511 1511 1510 1510 1510 1510 1509 1509 1509 1508 1508 1507 1508 1508 1509
1500 1503 1506 1507 1508 1509 1509 1510 1511 1512 1513 1513 1514 1515 1515 1516 1516 1516 1515 1515 1515 1515 1514 1514 1513 1513 1512 1512 1511 1511 1510 1510 1510 1510 1510 1509 1509 1508 1508 1507 1507 1507 1508
1498 1501 1504 1506 1507 1508 1509 1510 1511 1511 1512 1513 1514 1514 1515 1515 1516 1516 1516 1515 1515 1514 1514 1514 1513 1512 1512 1512 1511 1511 1511 1510 1509 1509 1509 1510 1509 1509 1508 1508 1507 1507 1506
1495 1498 1501 1503 1505 1507 1508 1509 1510 1511 1512 1513 1513 1514 1515 1515 1516 1516 1516 1516 1515 1514 1514 1513 1513 1512 1512 1511 1511 1510 1510 1510 1509 1509 1509 1509 1508 1508 1508 1507 1506 1506 1505
1494 1497 1499 1502 1504 1506 1507 1508 1509 1510 1511 1512 1513 1514 1514 1515 1515 1515 1515 1515 1515 1514 1514 1513 1512 1512 1511 1511 1510 1510 1509 1509 1508 1508 1508 1508 1507 1507 1507 1506 1505 1504 1504
1493 1496 1498 1501 1503 1504 1506 1507 1508 1509 1510 1511 1512 1513 1514 1515 1515 1515 1515 1515 1515 1514 1513 1513 1512 1511 1511 1510 1510 1509 1509 1508 1508 1507 1507 1507 1507 1506 1506 1505 1504 1503 1503
1492 1495 1498 1500 1502 1504 1506 1507 1508 1509 1510 1511 1511 1512 1513 1514 1514 1515 1515 1515 1514 1513 1513 1512 1511 1510 1510 1510 1509 1509 1508 1507 1507 1507 1506 1505 1505 1505 1505 1504 1504 1502 1501
1492 1495 1497 1500 1501 1503 1505 1506 1507 1508 1509 1510 1511 1512 1512 1513 1513 1513 1514 1513 1513 1513 1512 1511 1510 1510 1509 1508 1508 1507 1507 1506 1506 1505 1505 1504 1504 1503 1503 1503 1503 1502 1500
1492 1494 1497 1499 1501 1502 1504 1505 1506 1507 1509 1509 1510 1511 1511 1512 1512 1512 1512 1512 1511 1511 1510 1510 1509 1509 1508 1507 1506 1506 1505 1505 1504 1504 1503 1502 1502 1502 1501 1501 1500 1500 1499
1492 1494 1497 1499 1501 1502 1503 1504 1505 1506 1507 1508 1509 1509 1510 1510 1511 1511 1510 1510 1510 1509 1509 1508 1508 1507 1506 1506 1505 1504 1504 1503 1502 1502 1501 1501 1500 1500 1499 1499 1498 1497 1497
1492 1495 1497 1499 1501 1502 1503 1503 1505 1506 1506 1507 1508 1508 1509 1509 1509 1509 1509 1509 1508 1508 1507 1507 1506 1506 1505 1504 1503 1502 1502 1501 1500 1500 1499 1499 1498 1497 1497 1496 1495 1495 1494
1493 1495 1497 1499 1500 1502 1502 1503 1505 1505 1506 1506 1507 1507 1508 1508 1508 1508 1507 1507 1506 1506 1505 1505 1505 1504 1503 1503 1502 1501 1500 1499 1499 1498 1497 1496 1496 1495 1494 1493 1492 1492 1491
1493 1495 1497 1499 1500 1501 1502 1503 1504 1504 1504 1505 1506 1506 1506 1506 1506 1506 1506 1505 1505 1504 1504 1503 1503 1502 1502 1501 1500 1499 1498 1497 1497 1496 1495 1494 1493 1492 1491 1490 1490 1489 1488
1493 1495 1497 1498 1500 1501 1501 1502 1503 1503 1504 1504 1505 1505 1505 1505 1504 1504 1504 1503 1503 1503 1502 1502 1501 1501 1500 1499 1498 1497 1496 1495 1494 1494 1493 1492 1491 1490 1489 1488 1487 1486 1484
1493 1495 1496 1498 1499 1499 1500 1501 1501 1502 1502 1503 1503 1503 1503 1503 1503 1502 1502 1502 1501 1501 1501 1500 1500 1499 1498 1497 1496 1495 1494 1493 1492 1491 1490 1489 1488 1486 1485 1484 1483 1483 1482
1493 1494 1496 1497 1498 1499 1499 1499 1500 1501 1501 1501 1502 1502 1501 1501 1501 1501 1500 1500 1500 1499 1499 1498 1498 1497 1496 1495 1495 1493 1492 1490 1489 1488 1487 1486 1485 1483 1482 1481 1480 1479 1478
1492 1494 1495 1496 1497 1497 1498 1499 1499 1499 1500 1500 1500 1500 1500 1499 1499 1499 1499 1498 1498 1497 1497 1496 1495 1494 1493 1493 1492 1491 1489 1488 1487 1485 1484 1483 1481 1480 1479 1477 1475 1474 1473
1492 1493 1494 1495 1496 1497 1497 1498 1498 1498 1499 1499 1499 1499 1499 1498 1498 1497 1497 1497 1496 1495 1495 1494 1493 1492 1491 1490 1489 1488 1486 1485 1484 1482 1481 1480 1478 1477 1475 1473 1471 1470 1469
1491 1493 1494 1494 1495 1496 1496 1496 1497 1497 1498 1498 1498 1497 1497 1497 1496 1496 1495 1495 1494 1493 1492 1491 1490 1489 1488 1487 1486 1485 1484 1482 1481 1479 1478 1476 1474 1473 1472 1470 1468 1466 1465
1491 1492 1493 1494 1494 1495 1495 1495 1496 1496 1496 1496 1496 1496 1496 1495 1495 1494 1493 1493 1492 1491 1490 1489 1488 1487 1486 1485 1483 1482 1480 1479 1478 1476 1475 1473 1471 1469 1468 1466 1464 1462 1461
1491 1492 1492 1493 1494 1494 1494 1494 1494 1495 1495 1495 1495 1494 1494 1494 1494 1493 1492 1491 1490 1489 1488 1487 1486 1485 1483 1482 1480 1479 1478 1477 1475 1473 1472 1470 1468 1466 1464 1463 1461 1459 1458
1491 1492 1492 1493 1493 1494 1494 1493 1493 1493 1493 1493 1493 1493 1492 1492 1492 1491 1490 1489 1488 1487 1486 1485 1484 1483 1482 1480 1478 1476 1475 1474 1472 1470 1469 1467 1465 1463 1461 1459 1457 1456 1454
1491 1491 1491 1492 1493 1493 1493 1492 1492 1492 1491 1491 1491 1491 1490 1490 1490 1489 1488 1487 1486 1485 1484 1483 1482 1481 1480 1478 1476 1474 1472 1471 1469 1467 1466 1464 1462 1460 1458 1456 1454 1452 1451
1490 1490 1490 1491 1491 1491 1491 1491 1490 1490 1489 1489 1489 1489 1489 1488 1487 1487 1486 1485 1484 1484 1483 1481 1480 1478 1477 1475 1474 1472 1470 1468 1466 1464 1462 1461 1459 1457 1455 1453 1452 1450 1449
1489 1489 1489 1490 1490 1490 1489 1489 1489 1488 1488 1487 1487 1487 1487 1486 1485 1485 1484 1483 1482 1481 1480 1479 1478 1476 1474 1473 1471 1469 1467 1466 1464 1462 1460 1458 1457 1455 1453 1451 1449 1448 1446